Tracy, MN

5:54 AM CDT on September 21, 2017 (GMT -0500)
Tracy

Weather History for KTKC - September, 2013

Change the Weather History Date:

Tuesday, September 3, 2013

  Actual Average (KMML) Record (KMML)
Temperature  
Mean Temperature 68 °F -  
Max Temperature 82 °F 79 °F 95 °F (1971)
Min Temperature 54 °F 54 °F 33 °F (1974)
Cooling Degree Days 3    
Growing Degree Days 18 (Base 50)    
Moisture  
Dew Point 58 °F    
Average Humidity 72    
Maximum Humidity 90    
Minimum Humidity 45    
Precipitation  
Precipitation 0.00 in - - ()
Sea Level Pressure  
Sea Level Pressure 30.05 in    
Wind  
Wind Speed 3 mph (SSW)    
Max Wind Speed 12 mph    
Max Gust Speed -    
Visibility 10 miles    
Events      
Averages and records for this station are not official NWS values.
T = Trace of Precipitation, MM = Missing Value Source: NWS Daily Summary

Daily Weather History Graph

Daily Weather History Graph

Search for Another Location

Airport or City:

Trip Planner

Search our weather history database for the weather conditions in past years. The results will help you decide how hot, cold, wet, or windy it might be!

Date:

Astronomy

Sep. 03, 2013 Rise Set
Actual Time 6:48 AM CDT 7:54 PM CDT
Civil Twilight 6:18 AM CDT 8:24 PM CDT
Nautical Twilight 5:42 AM CDT 8:59 PM CDT
Astronomical Twilight 5:05 AM CDT 9:36 PM CDT
Moon 5:00 AM CDT (9/3) 6:43 PM CDT (9/3)
Length of Visible Light 14h 05m
Length of Day
13h 06m
Waning Crescent, 3% of the Moon is Illuminated
Sep 3
Waning Crescent
Sep 5
New
Sep 12
First Quarter
Sep 19
Full
Sep 26
Last Quarter

Hourly Weather History & Observations

Time (CDT) Temp. Heat Index Dew Point Humidity Pressure Visibility Wind Dir Wind Speed Gust Speed Precip Events Conditions
12:18 AM 56.3 °F - 51.4 °F 84% 30.07 in 10.0 mi Calm Calm - N/A   Clear
12:38 AM 57.0 °F - 51.8 °F 83% 30.07 in 10.0 mi Calm Calm - N/A   Clear
12:57 AM 56.7 °F - 51.6 °F 83% 30.07 in 10.0 mi Calm Calm - N/A   Clear
1:17 AM 56.3 °F - 51.4 °F 84% 30.07 in 10.0 mi Calm Calm - N/A   Clear
1:38 AM 55.9 °F - 51.3 °F 84% 30.06 in 10.0 mi Calm Calm - N/A   Clear
1:58 AM 55.6 °F - 51.1 °F 85% 30.06 in 10.0 mi Calm Calm - N/A   Clear
2:17 AM 55.6 °F - 51.1 °F 85% 30.06 in 10.0 mi Calm Calm - N/A   Clear
2:38 AM 55.2 °F - 51.1 °F 86% 30.06 in 10.0 mi Calm Calm - N/A   Clear
2:58 AM 55.4 °F - 51.1 °F 85% 30.06 in 10.0 mi Calm Calm - N/A   Clear
3:18 AM 55.0 °F - 51.3 °F 87% 30.07 in 10.0 mi Calm Calm - N/A   Clear
3:38 AM 54.7 °F - 51.8 °F 90% 30.07 in 10.0 mi Calm Calm - N/A   Clear
3:58 AM 54.7 °F - 51.8 °F 90% 30.07 in 10.0 mi Calm Calm - N/A   Clear
4:18 AM 54.7 °F - 51.3 °F 88% 30.07 in 10.0 mi SSW 10.4 mph - N/A   Clear
4:38 AM 54.5 °F - 51.1 °F 88% 30.07 in 10.0 mi SSW 9.2 mph - N/A   Clear
4:58 AM 54.9 °F - 51.8 °F 89% 30.07 in 10.0 mi SSW 10.4 mph - N/A   Clear
5:18 AM 54.3 °F - 51.4 °F 90% 30.08 in 10.0 mi SSW 10.4 mph - N/A   Clear
5:38 AM 54.5 °F - 51.3 °F 89% 30.08 in 10.0 mi SSW 11.5 mph - N/A   Clear
5:57 AM 54.9 °F - 51.8 °F 89% 30.08 in 10.0 mi SSW 11.5 mph - N/A   Clear
6:18 AM 54.7 °F - 51.8 °F 90% 30.08 in 10.0 mi SSW 9.2 mph - N/A   Clear
6:38 AM 55.2 °F - 52.2 °F 89% 30.08 in 10.0 mi SSW 10.4 mph - N/A   Clear
6:57 AM 55.0 °F - 51.8 °F 89% 30.08 in 10.0 mi SSW 10.4 mph - N/A   Clear
7:18 AM 55.4 °F - 52.0 °F 88% 30.08 in 10.0 mi SSW 9.2 mph - N/A   Clear
7:37 AM 55.8 °F - 52.0 °F 87% 30.08 in 10.0 mi SSW 9.2 mph - N/A   Clear
7:57 AM 56.7 °F - 52.3 °F 85% 30.08 in 10.0 mi SSW 11.5 mph - N/A   Clear
8:18 AM 58.3 °F - 53.4 °F 84% 30.08 in 10.0 mi SSW 9.2 mph - N/A   Clear
8:38 AM 59.5 °F - 54.0 °F 82% 30.08 in 10.0 mi SSW 8.1 mph - N/A   Clear
8:58 AM 61.5 °F - 54.7 °F 78% 30.08 in 10.0 mi SSW 3.5 mph - N/A   Clear
9:17 AM 63.7 °F - 55.2 °F 74% 30.08 in 10.0 mi Calm Calm - N/A   Clear
9:38 AM 64.8 °F - 54.9 °F 70% 30.08 in 10.0 mi SSW 10.4 mph - N/A   Clear
9:57 AM 64.6 °F - 55.4 °F 72% 30.08 in 10.0 mi SSW 3.5 mph - N/A   Clear
10:18 AM 67.8 °F - 56.5 °F 67% 30.08 in 10.0 mi SSW 9.2 mph - N/A   Clear
10:38 AM 70.9 °F - 57.2 °F 62% 30.08 in 10.0 mi SSW 9.2 mph - N/A   Clear
10:58 AM 72.5 °F - 58.1 °F 60% 30.07 in 10.0 mi SW 9.2 mph - N/A   Clear
11:18 AM 73.0 °F - 59.0 °F 61% 30.07 in 10.0 mi SSW 8.1 mph - N/A   Clear
11:37 AM 75.0 °F - 58.3 °F 56% 30.07 in 10.0 mi Calm Calm - N/A   Clear
11:57 AM 76.3 °F - 56.3 °F 50% 30.07 in 10.0 mi SSW 9.2 mph - N/A   Clear
12:18 PM 77.2 °F - 55.2 °F 47% 30.07 in 10.0 mi SW 9.2 mph - N/A   Clear
12:38 PM 77.5 °F - 54.7 °F 45% 30.06 in 10.0 mi Calm Calm - N/A   Clear
12:57 PM 78.4 °F - 56.5 °F 47% 30.06 in 10.0 mi SSW 3.5 mph - N/A   Clear
1:18 PM 79.2 °F - 57.6 °F 47% 30.05 in 10.0 mi Calm Calm - N/A   Clear
1:38 PM 79.3 °F - 56.8 °F 46% 30.05 in 10.0 mi Calm Calm - N/A   Clear
1:57 PM 80.6 °F 80.8 °F 57.4 °F 45% 30.04 in 10.0 mi Calm Calm - N/A   Clear
2:18 PM 81.1 °F 81.3 °F 57.7 °F 45% 30.04 in 10.0 mi Calm Calm - N/A   Clear
2:38 PM 81.3 °F 81.6 °F 59.0 °F 46% 30.03 in 10.0 mi Calm Calm - N/A   Clear
2:57 PM 81.9 °F 82.2 °F 59.9 °F 47% 30.03 in 10.0 mi Calm Calm - N/A   Clear
3:18 PM 81.3 °F 81.9 °F 60.6 °F 49% 30.02 in 10.0 mi Calm Calm - N/A   Clear
3:38 PM 81.0 °F 81.8 °F 61.2 °F 51% 30.02 in 10.0 mi South 6.9 mph - N/A   Clear
3:57 PM 82.8 °F 83.4 °F 61.5 °F 49% 30.01 in 10.0 mi SSE 5.8 mph - N/A   Clear
4:18 PM 82.2 °F 83.0 °F 61.9 °F 50% 30.01 in 10.0 mi Calm Calm - N/A   Clear
4:38 PM 82.0 °F 83.0 °F 62.1 °F 51% 30.01 in 10.0 mi Calm Calm - N/A   Clear
4:57 PM 80.2 °F 81.4 °F 62.2 °F 54% 30.01 in 10.0 mi South 5.8 mph - N/A   Clear
5:18 PM 79.2 °F - 62.4 °F 56% 30.01 in 10.0 mi Calm Calm - N/A   Clear
5:38 PM 78.8 °F - 62.6 °F 57% 30.01 in 10.0 mi Calm Calm - N/A   Clear
5:58 PM 78.4 °F - 63.3 °F 60% 30.01 in 10.0 mi Calm Calm - N/A   Clear
6:18 PM 79.0 °F - 64.0 °F 60% 30.01 in 10.0 mi Calm Calm - N/A   Clear
6:37 PM 79.0 °F - 64.6 °F 61% 30.01 in 10.0 mi Calm Calm - N/A   Clear
6:57 PM 77.2 °F - 65.3 °F 67% 30.01 in 10.0 mi Calm Calm - N/A   Clear
7:18 PM 76.5 °F - 65.3 °F 68% 30.01 in 10.0 mi Calm Calm - N/A   Clear
7:37 PM 74.3 °F - 65.3 °F 73% 30.01 in 10.0 mi Calm Calm - N/A   Clear
7:57 PM 72.7 °F - 64.8 °F 76% 30.01 in 10.0 mi Calm Calm - N/A   Clear
8:18 PM 73.6 °F - 64.6 °F 73% 30.02 in 10.0 mi Calm Calm - N/A   Clear
8:37 PM 70.0 °F - 64.6 °F 83% 30.02 in 10.0 mi Calm Calm - N/A   Clear
8:57 PM 71.4 °F - 64.9 °F 80% 30.01 in 10.0 mi Calm Calm - N/A   Clear
9:18 PM 71.1 °F - 64.8 °F 80% 30.02 in 10.0 mi Calm Calm - N/A   Clear
9:37 PM 68.0 °F - 64.0 °F 87% 30.03 in 10.0 mi Calm Calm - N/A   Clear
9:58 PM 67.3 °F - 63.9 °F 89% 30.03 in 10.0 mi Calm Calm - N/A   Clear
10:17 PM 68.0 °F - 64.2 °F 88% 30.03 in 10.0 mi Calm Calm - N/A   Clear
10:38 PM 67.5 °F - 63.9 °F 88% 30.03 in 10.0 mi Calm Calm - N/A   Clear
10:58 PM 69.4 °F - 64.9 °F 86% 30.03 in 10.0 mi SSW 4.6 mph - N/A   Clear
11:17 PM 69.4 °F - 64.8 °F 85% 30.03 in 10.0 mi Calm Calm - N/A   Clear
11:37 PM 68.9 °F - 64.6 °F 86% 30.03 in 10.0 mi Calm Calm - N/A   Clear
11:58 PM 68.9 °F - 64.6 °F 86% 30.03 in 10.0 mi SSW 5.8 mph - N/A   Clear